Location: Dzierzno
(50.6159°N, 19.2852°E)
Time: 23:29:23
(UTC+00:00)

Cosmos 2344 - Pass Details

Date: 18 November 2025
Orbit: 1197 x 3044 km, 63.3° (Epoch: 05 December)

Event Time Altitude Azimuth Distance (km) Brightness Sun altitude
Rises 18:23:40 0° 315° (NW) 4,239 7.0 -33.1°
Reaches altitude 10° 18:26:14 10° 312° (NW) 3,365 6.4 -33.5°
Maximum altitude 18:34:04 57° 236° (SW) 1,816 4.4 -34.7°
Enters shadow 18:38:34 34° 176° (S) 2,627 5.0 -35.4°
